Caribou, ME

9:18 AM EDT on March 28, 2017 (GMT -0400)
Caribou Municipal

Weather History for KCAR - November, 2012

Change the Weather History Date:

Monday, November 5, 2012

  Actual Average Record
Temperature  
Mean Temperature 31 °F 36 °F  
Max Temperature 33 °F 43 °F 67 °F (1982)
Min Temperature 28 °F 29 °F 15 °F (1986)
Degree Days  
Heating Degree Days 34 29  
Month to date heating degree days 119 142  
Since 1 July heating degree days 948 1282  
Cooling Degree Days 0 0  
Month to date cooling degree days 0 0  
Year to date cooling degree days 279 180  
Moisture  
Dew Point 19 °F    
Average Humidity 59    
Maximum Humidity 69    
Minimum Humidity 49    
Precipitation  
Precipitation T in 0.12 in 1.86 in (1982)
Month to date precipitation 0.28 0.62  
Year to date precipitation 35.15 32.21  
Snow  
Snow T in 0.20 in 9.70 in (2004)
Month to date snowfall T 0.9  
Since 1 July snowfall T 2.6  
Since 1 September snowfall T 2.6  
Snow Depth 0.00 in    
Sea Level Pressure  
Sea Level Pressure 29.95 in    
Wind  
Wind Speed 7 mph (NNW)    
Max Wind Speed 17 mph    
Max Gust Speed 23 mph    
Visibility 10 miles    
Events      
T = Trace of Precipitation, MM = Missing Value Source: NWS Daily Summary

Daily Weather History Graph

Daily Weather History Graph

Search for Another Location

Airport or City:

Trip Planner

Search our weather history database for the weather conditions in past years. The results will help you decide how hot, cold, wet, or windy it might be!

Date:

Astronomy

Nov. 05, 2012 Rise Set
Actual Time 6:21 AM EST 4:09 PM EST
Civil Twilight 5:48 AM EST 4:41 PM EST
Nautical Twilight 5:12 AM EST 5:17 PM EST
Astronomical Twilight 4:37 AM EST 5:53 PM EST
Moon 9:43 PM EST (11/5) 11:39 AM EST (11/5)
Length of Visible Light 10h 52m
Length of Day
9h 48m
Waning Gibbous, 63% of the Moon is Illuminated
Nov 5
Waning Gibbous
Nov 6
Last Quarter
Nov 13
New
Nov 20
First Quarter
Nov 28
Full

Hourly Weather History & Observations

Time (EST) Temp. Windchill Dew Point Humidity Pressure Visibility Wind Dir Wind Speed Gust Speed Precip Events Conditions
12:54 AM 32.0 °F 23.6 °F 21.0 °F 64% 29.88 in 10.0 mi NW 10.4 mph 18.4 mph N/A   Overcast
1:54 AM 32.0 °F 24.8 °F 19.9 °F 61% 29.89 in 10.0 mi NNW 8.1 mph - N/A   Overcast
2:54 AM 30.9 °F 24.3 °F 21.9 °F 69% 29.89 in 10.0 mi NNW 6.9 mph - N/A   Overcast
3:54 AM 30.9 °F 21.2 °F 21.0 °F 67% 29.91 in 10.0 mi NNW 12.7 mph - N/A   Overcast
4:54 AM 30.9 °F 21.7 °F 19.9 °F 64% 29.91 in 10.0 mi NNW 11.5 mph - N/A   Overcast
5:54 AM 30.0 °F 23.2 °F 21.0 °F 69% 29.93 in 10.0 mi NNW 6.9 mph - N/A   Overcast
6:54 AM 30.0 °F 22.4 °F 19.0 °F 64% 29.94 in 10.0 mi NNW 8.1 mph - N/A   Overcast
7:54 AM 30.9 °F 23.5 °F 18.0 °F 59% 29.94 in 10.0 mi NNW 8.1 mph - N/A   Overcast
8:54 AM 32.0 °F 24.2 °F 19.0 °F 59% 29.95 in 10.0 mi NNW 9.2 mph - N/A   Overcast
9:54 AM 33.1 °F 24.9 °F 18.0 °F 54% 29.95 in 10.0 mi NNW 10.4 mph - N/A   Overcast
10:54 AM 30.9 °F 21.7 °F 17.1 °F 57% 29.95 in 10.0 mi NW 11.5 mph - N/A   Overcast
11:54 AM 32.0 °F 25.6 °F 15.1 °F 50% 29.95 in 10.0 mi WNW 6.9 mph - N/A   Overcast
12:54 PM 32.0 °F 27.5 °F 18.0 °F 56% 29.95 in 10.0 mi North 4.6 mph - N/A   Overcast
1:54 PM 32.0 °F 24.2 °F 19.0 °F 59% 29.95 in 10.0 mi NNW 9.2 mph - N/A   Overcast
2:54 PM 30.9 °F 24.3 °F 19.0 °F 61% 29.96 in 10.0 mi NW 6.9 mph - 0.00 in   Overcast
3:54 PM 30.0 °F 24.1 °F 19.9 °F 66% 29.96 in 10.0 mi NNW 5.8 mph - 0.00 in   Overcast
4:54 PM 30.0 °F 22.4 °F 17.1 °F 59% 29.98 in 10.0 mi NW 8.1 mph - N/A   Overcast
5:54 PM 30.0 °F 23.2 °F 17.1 °F 59% 30.00 in 10.0 mi NW 6.9 mph - N/A   Overcast
6:54 PM 30.0 °F 23.2 °F 16.0 °F 56% 30.01 in 10.0 mi NNW 6.9 mph - 0.00 in   Overcast
7:54 PM 28.9 °F - 18.0 °F 64% 30.01 in 10.0 mi Calm Calm - N/A   Overcast
8:54 PM 28.9 °F - 18.0 °F 64% 30.01 in 10.0 mi Calm Calm - N/A   Overcast
9:54 PM 28.0 °F - 18.0 °F 66% 30.00 in 10.0 mi Calm Calm - N/A   Overcast
10:54 PM 28.0 °F - 19.0 °F 69% 30.00 in 10.0 mi Calm Calm - N/A   Overcast
11:54 PM 28.0 °F 24.2 °F 19.0 °F 69% 30.00 in 10.0 mi Variable 3.5 mph - N/A   Overcast